Terminal Aerodrome Forecast
Issued by NWS

Home | Current Version | Previous Version | Text Only | Print | Product List | Glossary On
Versions: 1 2 3 4 5 6 7 8 9 10 11 12 13 14 15 16 17 18
000
FTUS43 KEAX 241400 AAA
TAFSTJ
TAF AMD
KSTJ 241439Z 2415/2512 20008KT P6SM BKN012
     FM241700 20006KT P6SM -RA BKN020
     FM242100 15007KT P6SM VCSH BKN035
     FM250000 18009KT 5SM -RA BR BKN014
      TEMPO 2500/2504 4SM RA BR OVC009=

USA.gov is the U.S. government's official web portal to all federal, state and local government web resources and services.